Weather Roundup
Issued by NWS

Home | Current Version | Previous Version | Graphics & Text | Print | Product List | Glossary Off
Versions: 1 2 3 4 5 6 7 8 9 10 11 12 13 14 15 16 17 18 19 20 21 22 23 24 25 26 27 28 29 30 31 32 33 34 35 36 37 38 39 40 41 42 43 44 45 46 47 48 49 50

000
NZUS93 KARX 212059
HRRWXR

CURRENT HOURLY OBSERVATIONS ACROSS
MUCH OF THE UPPER MISSISSIPPI VALLEY
NATIONAL WEATHER SERVICE LA CROSSE WI
400 PM CDT SUN SEP 21 2014


...SOUTHEAST MINNESOTA...


CITY           SKY/WX    TMP DP  RH WIND       PRES   REMARKS
ROCHESTER      MOSUNNY   63  46  54 N16G24    30.14R
ROCHESTER/MAYO MOCLDY    64  42  44 NW16G28   30.12S
WINONA         MOSUNNY   66  46  48 N12G21    30.10R
AUSTIN         PTSUNNY   63  48  59 N12G21    30.14R
ALBERT LEA     PTSUNNY   64  46  52 N12       30.16R
DODGE CENTER   PTSUNNY   63  48  59 N16G22    30.14R
PRESTON        PTSUNNY   62  52  69 NW16G23   30.13R
OWATONNA       MOSUNNY   64  48  55 NW15G21   30.15S
FARIBAULT      PTSUNNY   68  43  40 N12       30.15F
$$

...ELSEWHERE IN MINNESOTA...


CITY           SKY/WX    TMP DP  RH WIND       PRES   REMARKS
MINNEAPOLIS    MOSUNNY   66  45  46 NW16      30.14S
INTNL FALLS    SUNNY     61  45  55 NW8       30.14F
DULUTH         SUNNY     63  37  38 N13       30.12R
RED WING       PTSUNNY   66  43  42 NW14G23   30.12R
REDWOOD FALLS  CLOUDY    65  50  58 N10       30.19F
MANKATO        CLOUDY    64  46  52 NW18      30.17S
WORTHINGTON    MOSUNNY   64  45  48 N17       30.22S
FAIRMONT       CLOUDY    64  46  52 NW13G20   30.19R
$$

...SOUTHWEST WISCONSIN...


CITY           SKY/WX    TMP DP  RH WIND       PRES   REMARKS
LA CROSSE      PTSUNNY   68  46  45 NW16      30.07R
PRAIRIE DU CHI PTSUNNY   66  45  45 NW12G22   30.06S
BOSCOBEL       PTSUNNY   67  46  47 N8G22     30.06R
LONE ROCK      NOT AVBL
PLATTEVILLE    PTSUNNY   66  48  52 NW15G22   30.05R
FORT MC COY    MOSUNNY   65  42  42 NW10G18   30.07R
VIROQUA        FAIR      64  45  49 N15       30.07R
WIS DELLS      PTSUNNY   64  41  43 N9G21     30.03S
$$

...ELSEWHERE IN WISCONSIN...


CITY           SKY/WX    TMP DP  RH WIND       PRES   REMARKS
MILWAUKEE      PTSUNNY   61  45  55 N17G24    29.98R
MADISON        PTSUNNY   65  44  46 N14G24    30.02R
GREEN BAY      PTSUNNY   58  44  60 NW13      30.01R
EAU CLAIRE     NOT AVBL
BLACK RVR FLS  FAIR      65  40  39 N13       30.06R
MEDFORD        PTSUNNY   55  43  64 NW15      30.08R
WAUSAU         SUNNY     57  40  52 NW13G22   30.04R
WIS RAPIDS     SUNNY     62  43  49 NW14G22   30.06R
MARSHFIELD     MOSUNNY   62  44  51 N17G26    30.06R
RICE LAKE      PTSUNNY   63  44  49 N13G18    30.13R
$$

...NORTHEAST IOWA...


CITY           SKY/WX    TMP DP  RH WIND       PRES   REMARKS
WATERLOO       CLOUDY    64  48  56 NW18      30.11S
DUBUQUE        MOSUNNY   65  50  58 N16       30.07R
DECORAH        PTSUNNY   64  48  55 NW12G23   30.09R
MASON CITY     PTSUNNY   66  49  54 NW15G24   30.16R
CHARLES CITY   PTSUNNY   64  46  52 N15       30.14R
OELWEIN        CLOUDY    64  50  59 NW17G26   30.11R
$$

...ELSEWHERE IN IOWA...


CITY           SKY/WX    TMP DP  RH WIND       PRES   REMARKS
DES MOINES     PTSUNNY   71  47  42 NW18      30.14S
IOWA CITY        N/A     64  52  64 NW16G22   30.11S
FORT DODGE     CLOUDY    64  48  55 N6G16     30.18S
MARSHALLTOWN   PTSUNNY   67  49  52 N17       30.13S
CEDAR RAPIDS   CLOUDY    63  51  65 NW14      30.10R
$$

...NORTHERN ILLINOIS...


CITY           SKY/WX    TMP DP  RH WIND       PRES   REMARKS
CHICAGO-OHARE  PTSUNNY   69  50  50 N16G22    29.96R
DUPAGE         PTSUNNY   69  51  52 N14       29.97R
CHICAGO-MIDWAY PTSUNNY   67  53  61 N9        29.95S
MOLINE         CLOUDY    64  51  62 NW10      30.07R
ROCKFORD       PTSUNNY   66  50  56 N12G25    30.02R
STERLING       CLOUDY    66  54  63 NW15G21   30.03S
PEORIA         CLOUDY    68  50  52 NW10G20   30.05R
$$

NOTE: "FAIR" INDICATES FEW OR NO CLOUDS BELOW 12,000 FEET WITH NO
SIGNIFICANT WEATHER AND/OR OBSTRUCTIONS TO VISIBILITY. WIND
SPEEDS ARE IN MILES-PER-HOUR.



USA.gov is the U.S. government's official web portal to all federal, state and local government web resources and services.